EN

Hourly Weather Paramus

Today, 27 February, Saturday

Time Temperature Precipitation Wind Pressure Humidity
00:00 +2°C° 0 mm 2 mps 772 mmHg 75%
01:00 +3°C° 0 mm 1 mps 771 mmHg 79%
02:00 +3°C° 0.3 mm 1 mps 771 mmHg 85%
03:00 +3°C° 0.3 mm 1 mps 770 mmHg 91%
04:00 +3°C° 0.3 mm 1 mps 769 mmHg 96%
05:00 +2°C° 0.9 mm 2 mps 768 mmHg 97%
06:00 +2°C° 0.9 mm 2 mps 767 mmHg 97%
07:00 +3°C° 0.9 mm 2 mps 767 mmHg 98%
08:00 +3°C° 1 mm 2 mps 766 mmHg 98%
09:00 +4°C° 1 mm 2 mps 765 mmHg 98%
10:00 +4°C° 1 mm 2 mps 764 mmHg 98%
11:00 +5°C° 0.5 mm 2 mps 763 mmHg 99%
12:00 +6°C° 0.5 mm 1 mps 762 mmHg 99%
13:00 +7°C° 0.5 mm 1 mps 761 mmHg 99%
14:00 +7°C° 0.2 mm 1 mps 761 mmHg 99%
15:00 +7°C° 0.2 mm 2 mps 761 mmHg 99%
16:00 +7°C° 0.2 mm 2 mps 761 mmHg 98%
17:00 +7°C° 0 mm 3 mps 762 mmHg 97%
18:00 +7°C° 0 mm 3 mps 763 mmHg 95%
19:00 +5°C° 0 mm 3 mps 763 mmHg 94%
20:00 +5°C° 0 mm 3 mps 764 mmHg 93%
21:00 +4°C° 0 mm 3 mps 765 mmHg 92%
22:00 +4°C° 0 mm 3 mps 765 mmHg 91%
23:00 +4°C° 0 mm 2 mps 766 mmHg 89%

Tomorrow, 28 February, Sunday

Time Temperature Precipitation Wind Pressure Humidity
00:00 +4°C° 0 mm 2 mps 766 mmHg 87%
01:00 +3°C° 0 mm 2 mps 766 mmHg 86%
02:00 +3°C° 0 mm 2 mps 766 mmHg 86%
03:00 +3°C° 0 mm 1 mps 766 mmHg 86%
04:00 +3°C° 0 mm 1 mps 766 mmHg 87%
05:00 +3°C° 0 mm 1 mps 766 mmHg 87%
06:00 +3°C° 0 mm 1 mps 766 mmHg 88%
07:00 +3°C° 0 mm 1 mps 766 mmHg 89%
08:00 +4°C° 0 mm 1 mps 766 mmHg 85%
09:00 +4°C° 0 mm 1 mps 766 mmHg 81%
10:00 +4°C° 0 mm 0 mps 766 mmHg 77%
11:00 +5°C° 0.8 mm 1 mps 766 mmHg 81%
12:00 +5°C° 0.8 mm 1 mps 765 mmHg 84%
13:00 +4°C° 0.8 mm 1 mps 764 mmHg 88%
14:00 +3°C° 1.9 mm 2 mps 763 mmHg 91%
15:00 +3°C° 1.9 mm 2 mps 763 mmHg 93%
16:00 +2°C° 1.9 mm 3 mps 762 mmHg 95%
17:00 +4°C° 0.1 mm 2 mps 761 mmHg 96%
18:00 +4°C° 0.1 mm 2 mps 761 mmHg 97%
19:00 +5°C° 0.1 mm 1 mps 761 mmHg 97%
20:00 +5°C° 0 mm 1 mps 760 mmHg 97%
21:00 +5°C° 0 mm 1 mps 760 mmHg 98%
22:00 +5°C° 0 mm 1 mps 759 mmHg 98%
23:00 +5°C° 0 mm 1 mps 758 mmHg 98%

Day after tomorrow, 1 March, Monday

Time Temperature Precipitation Wind Pressure Humidity
00:00 +5°C° 0 mm 1 mps 757 mmHg 98%
01:00 +5°C° 0 mm 1 mps 756 mmHg 98%
02:00 +5°C° 0.1 mm 1 mps 755 mmHg 98%
03:00 +5°C° 0.1 mm 1 mps 754 mmHg 98%
04:00 +5°C° 0.1 mm 1 mps 753 mmHg 98%
05:00 +5°C° 2.1 mm 1 mps 753 mmHg 99%
06:00 +6°C° 2.1 mm 1 mps 752 mmHg 99%
07:00 +6°C° 2.1 mm 1 mps 752 mmHg 99%
08:00 +5°C° 0.7 mm 2 mps 752 mmHg 97%
09:00 +5°C° 0.7 mm 4 mps 752 mmHg 95%
10:00 +6°C° 0.7 mm 5 mps 752 mmHg 93%
11:00 +6°C° 0.1 mm 5 mps 753 mmHg 85%
12:00 +6°C° 0.1 mm 5 mps 753 mmHg 78%
13:00 +6°C° 0.1 mm 5 mps 753 mmHg 71%
14:00 +6°C° 0 mm 5 mps 753 mmHg 67%
15:00 +6°C° 0 mm 5 mps 753 mmHg 62%
16:00 +6°C° 0 mm 5 mps 753 mmHg 58%
17:00 +5°C° 0 mm 5 mps 753 mmHg 59%
18:00 +4°C° 0 mm 4 mps 754 mmHg 60%
19:00 +3°C° 0 mm 4 mps 755 mmHg 61%
20:00 +1°C° 0 mm 5 mps 755 mmHg 60%
21:00 0°C° 0 mm 5 mps 755 mmHg 59%
22:00 -1°C° 0 mm 6 mps 755 mmHg 58%
23:00 -3°C° 0 mm 7 mps 756 mmHg 54%

2 March, Tuesday

Time Temperature Precipitation Wind Pressure Humidity
00:00 -6°C° 0 mm 8 mps 757 mmHg 51%
01:00 -10°C° 0 mm 10 mps 758 mmHg 47%
02:00 -10°C° 0 mm 9 mps 760 mmHg 45%
03:00 -11°C° 0 mm 9 mps 761 mmHg 42%
04:00 -12°C° 0 mm 9 mps 762 mmHg 40%
05:00 -13°C° 0 mm 8 mps 763 mmHg 42%
06:00 -13°C° 0 mm 8 mps 764 mmHg 43%
07:00 -13°C° 0 mm 8 mps 765 mmHg 44%
08:00 -12°C° 0 mm 8 mps 765 mmHg 42%
09:00 -12°C° 0 mm 8 mps 766 mmHg 39%
10:00 -11°C° 0 mm 8 mps 767 mmHg 36%
11:00 -9°C° 0 mm 7 mps 767 mmHg 36%
12:00 -8°C° 0 mm 7 mps 767 mmHg 35%
13:00 -6°C° 0 mm 7 mps 767 mmHg 34%
14:00 -6°C° 0 mm 7 mps 767 mmHg 35%
15:00 -6°C° 0 mm 7 mps 767 mmHg 36%
16:00 -4°C° 0 mm 6 mps 767 mmHg 37%
17:00 -5°C° 0 mm 6 mps 767 mmHg 39%
18:00 -5°C° 0 mm 5 mps 768 mmHg 42%
19:00 -5°C° 0 mm 4 mps 768 mmHg 44%
20:00 -5°C° 0 mm 3 mps 768 mmHg 45%
21:00 -5°C° 0 mm 3 mps 768 mmHg 46%
22:00 -4°C° 0 mm 2 mps 768 mmHg 47%
23:00 -3°C° 0 mm 2 mps 768 mmHg 48%

3 March, Wednesday

Time Temperature Precipitation Wind Pressure Humidity
00:00 -3°C° 0 mm 2 mps 768 mmHg 49%
01:00 -3°C° 0 mm 2 mps 768 mmHg 50%
02:00 -4°C° 0 mm 3 mps 767 mmHg 49%
03:00 -4°C° 0 mm 3 mps 767 mmHg 48%
04:00 -4°C° 0 mm 3 mps 766 mmHg 47%
05:00 -2°C° 0 mm 3 mps 766 mmHg 46%
06:00 -2°C° 0 mm 3 mps 766 mmHg 46%
07:00 -2°C° 0 mm 3 mps 766 mmHg 45%
08:00 -2°C° 0 mm 4 mps 765 mmHg 43%
09:00 0°C° 0 mm 4 mps 765 mmHg 41%
10:00 +1°C° 0 mm 4 mps 764 mmHg 39%
11:00 +4°C° 0 mm 4 mps 764 mmHg 38%
12:00 +5°C° 0 mm 4 mps 763 mmHg 36%
13:00 +7°C° 0 mm 4 mps 762 mmHg 34%
14:00 +7°C° 0 mm 4 mps 762 mmHg 35%
15:00 +7°C° 0 mm 4 mps 762 mmHg 36%
16:00 +8°C° 0 mm 4 mps 761 mmHg 37%
17:00 +7°C° 0 mm 3 mps 762 mmHg 44%
18:00 +5°C° 0 mm 3 mps 762 mmHg 50%
19:00 +4°C° 0 mm 2 mps 762 mmHg 57%
20:00 +4°C° 0 mm 2 mps 762 mmHg 59%
21:00 +4°C° 0 mm 2 mps 763 mmHg 62%
22:00 +3°C° 0 mm 2 mps 763 mmHg 64%
23:00 +3°C° 0 mm 2 mps 763 mmHg 65%

4 March, Thursday

Time Temperature Precipitation Wind Pressure Humidity
00:00 +3°C° 0 mm 2 mps 763 mmHg 67%
01:00 +3°C° 0 mm 2 mps 762 mmHg 68%
02:00 +2°C° 0 mm 2 mps 762 mmHg 68%
03:00 +2°C° 0 mm 2 mps 762 mmHg 68%
04:00 +3°C° 0 mm 1 mps 762 mmHg 68%
05:00 +3°C° 0 mm 1 mps 762 mmHg 70%
06:00 +3°C° 0 mm 1 mps 763 mmHg 72%
07:00 +3°C° 0 mm 1 mps 763 mmHg 74%
08:00 +4°C° 0 mm 2 mps 763 mmHg 69%
09:00 +5°C° 0 mm 2 mps 763 mmHg 64%
10:00 +7°C° 0 mm 2 mps 763 mmHg 58%
11:00 +8°C° 0 mm 2 mps 763 mmHg 56%
12:00 +10°C° 0 mm 3 mps 763 mmHg 54%
13:00 +11°C° 0 mm 3 mps 763 mmHg 53%
14:00 +10°C° 0 mm 3 mps 763 mmHg 53%
15:00 +10°C° 0 mm 3 mps 763 mmHg 54%
16:00 +10°C° 0 mm 4 mps 763 mmHg 55%
17:00 +8°C° 0 mm 4 mps 763 mmHg 59%
18:00 +6°C° 0 mm 4 mps 764 mmHg 63%
19:00 +5°C° 0 mm 4 mps 764 mmHg 67%
20:00 +4°C° 0 mm 3 mps 765 mmHg 69%
21:00 +3°C° 0 mm 3 mps 765 mmHg 70%
22:00 +3°C° 0 mm 2 mps 765 mmHg 71%
23:00 +3°C° 0 mm 2 mps 765 mmHg 73%
Show more

We Need Your Consent

Meteoprog and our Service Providers may store and access personal data such as cookies, device identifiers or other similar technologies on your device and process such data to personalise content and ads, as well as provide social media features and to analyse the traffic.

  • Store and/or access information on your device

    Cookies, device identifiers or other information can be stored or accessed on your device for the purposes indicated above.

  • Personalised ads and content, ad and content measurement, audience insights, and products development

    Ads and content can be personalised based on a profile. More data can be added to better personalise ads and content. Ad and content performance can be measured. Insights about the audience who saw the ads and content can be derived. Such data can be used to develop or improve user’s experience, systems and software.

By clicking ‘I Agree’ you will allow the use of indicated cookies, device identifiers, web beacons or other similar technologies. Your settings can be changed in the browser on your device.

For certain purposes, legitimate interests may be relied on, rather than consent. You can read more about this in our Privacy and Cookie Policy.